This is the latest recevied weather packets stored in our database for station/object KC4JY. If no packets are shown the sender has not sent any weather packets the latest 10 day(s).
| Time | Temp. | Humidity | Pressure | Rain* | Wind** | Luminosity | Snow |
|---|---|---|---|---|---|---|---|
| 1777689043 | 12.22° C | 88% | 1013 hPa | 0 mm | - | - | - |
| 1777688140 | 12.22° C | 88% | 1013.2 hPa | 0 mm | - | - | - |
| 1777687217 | 12.22° C | 88% | 1012.8 hPa | 0 mm | - | - | - |
| 1777686326 | 12.22° C | 87% | 1013.1 hPa | 0 mm | - | - | - |
| 1777685458 | 12.22° C | 87% | 1013.1 hPa | 0 mm | - | - | - |
| 1777684563 | 12.78° C | 87% | 1012.9 hPa | 0 mm | - | - | - |
| 1777683640 | 12.78° C | 86% | 1013 hPa | 0 mm | - | - | - |
| 1777682746 | 12.78° C | 85% | 1012.7 hPa | 0 mm | - | - | - |
| 1777681826 | 13.33° C | 84% | 1012.6 hPa | 0 mm | - | - | - |
| 1777680923 | 13.33° C | 83% | 1012.6 hPa | 0 mm | - | - | - |
| 1777680003 | 13.89° C | 81% | 1012.4 hPa | 0 mm | - | - | - |
| 1777679103 | 14.44° C | 80% | 1012.6 hPa | 0 mm | - | - | - |
| 1777678245 | 14.44° C | 78% | 1012.8 hPa | 0 mm | - | - | - |
| 1777677344 | 15° C | 77% | 1012.7 hPa | 0 mm | - | - | - |
| 1777676427 | 15° C | 77% | 1012.9 hPa | 0 mm | - | - | - |
| 1777675587 | 15.56° C | 75% | 1012.8 hPa | 0 mm | - | - | - |
| 1777674609 | 16.11° C | 73% | 1012.8 hPa | 0 mm | - | - | - |
| 1777673709 | 16.11° C | 72% | 1012.9 hPa | 0 mm | - | - | - |
| 1777672850 | 16.11° C | 71% | 1012.7 hPa | 0 mm | - | - | - |
| 1777671950 | 16.67° C | 69% | 1012.6 hPa | 0 mm | - | - | - |
| 1777671039 | 16.11° C | 68% | 1012.7 hPa | 0 mm | - | - | - |
| 1777670137 | 16.11° C | 69% | 1012.9 hPa | 0 mm | - | - | - |
| 1777669235 | 16.67° C | 67% | 1013 hPa | 0 mm | - | - | - |
| 1777668335 | 16.67° C | 67% | 1013.1 hPa | 0 mm | - | - | - |
| 1777667445 | 16.67° C | 68% | 1013 hPa | 0 mm | - | - | - |
* Rain latest hour (hover to see other rain measurements)
** Current wind speed in m/s (hover to see current wind gust speed)